Flag for Russia Weather past 2 weeks in Pyatigorsk, Russia

Now
72 °F

Clear.


Feels Like: 76 °F
Forecast: 64 / 81 °F
Wind: No wind

Location: Mineral'Nye Vody

Current Time: Jul 27, 2014 at 12:07:28 AM

Latest Report: Jul 26, 2014 at 11:30 PM


Visibility: N/A

Pressure: 29.86 "Hg

Humidity: 61%

Dew point: 57 °F

Location of PyatigorskLocation

Historic Weather in Pyatigorsk — Graph

°F

Pyatigorsk temperature yesterday

Maximum temperature yesterday: 91 °F (at 2:30 PM)
Minimum temperature yesterday: 59 °F (at 5:00 AM)
Average temperature yesterday: 76 °F

Past Weeks' High & Low Weather Summary

 TemperatureHumidityPressure
High93 °F (Jul 17, 4:00 PM)100% (Jul 19, 6:30 AM)29.95 "Hg (Jul 19, 6:30 AM)
Low54 °F (Jul 22, 4:00 AM)20% (Jul 23, 4:00 PM)29.68 "Hg (Jul 19, 5:00 PM)
Average74 °F61%29.83 "Hg
* Reported Jul 11 11:00 PM — Jul 26 11:00 PM, Pyatigorsk, Weather by CustomWeather, © 2014

Note: Actual official high and low records may vary slightly from our data, if they occured in-between our weather recording intervals... More about our weather records

Advertising

Pyatigorsk weather history for previous 24 hours

 ConditionsComfort  
Time TempWeatherWind HumidityBarometerVisibility
11:00 PM
Jul 26
73 °FClear.No wind57%29.86 "HgN/A
10:30 PM75 °FPassing clouds.1 mph54%29.86 "HgN/A
10:00 PM77 °FPassing clouds.No wind47%29.86 "HgN/A
9:30 PM79 °FScattered clouds.3 mph45%29.86 "HgN/A
9:00 PM79 °FScattered clouds.6 mph45%29.83 "HgN/A
8:30 PM81 °FPartly sunny.6 mph42%29.83 "HgN/A
8:00 PM86 °FPartly sunny.8 mph31%29.83 "HgN/A
7:30 PM88 °FPartly sunny.10 mph29%29.83 "HgN/A
7:00 PM88 °FPartly sunny.13 mph29%29.80 "HgN/A
6:30 PM90 °FScattered clouds.13 mph27%29.80 "HgN/A
6:00 PM91 °FScattered clouds.15 mph24%29.80 "HgN/A
5:30 PM91 °FPartly sunny.13 mph24%29.80 "HgN/A
5:00 PM91 °FPartly sunny.20 mph21%29.83 "HgN/A
4:30 PM91 °FScattered clouds.17 mph20%29.83 "HgN/A
4:00 PM91 °FScattered clouds.20 mph20%29.83 "HgN/A
3:30 PM91 °FScattered clouds.17 mph21%29.83 "HgN/A
3:00 PM91 °FScattered clouds.20 mph21%29.83 "HgN/A
2:30 PM91 °FScattered clouds.20 mph23%29.83 "HgN/A
2:00 PM90 °FPassing clouds.20 mph24%29.83 "HgN/A
1:30 PM90 °FPassing clouds.22 mph26%29.86 "HgN/A
1:00 PM88 °FSunny.22 mph27%29.86 "HgN/A
12:30 PM88 °FSunny.20 mph29%29.86 "HgN/A
12:00 PM86 °FSunny.22 mph31%29.86 "HgN/A
11:30 AM86 °FSunny.20 mph35%29.86 "HgN/A
11:00 AM84 °FSunny.17 mph33%29.89 "HgN/A
10:30 AM82 °FSunny.6 mph48%29.89 "HgN/A
10:00 AM79 °FSunny.8 mph54%29.89 "HgN/A
9:30 AM75 °FSunny.8 mph61%29.89 "HgN/A
9:00 AM73 °FSunny.6 mph61%29.89 "HgN/A
8:30 AM70 °FSunny.3 mph73%29.89 "HgN/A
8:00 AM66 °FSunny.No wind88%29.89 "HgN/A
7:30 AM63 °FSunny.No wind94%29.89 "HgN/A
7:00 AM61 °FSunny.3 mph100%29.89 "HgN/A
6:30 AM59 °FClear.No wind100%29.89 "Hg4 mi
6:00 AM59 °FClear.No wind94%29.89 "Hg4 mi
5:30 AM59 °FClear.6 mph100%29.86 "Hg4 mi
5:00 AM59 °FClear.No wind94%29.86 "HgN/A
4:30 AM61 °FClear.3 mph94%29.86 "HgN/A
4:00 AM61 °FClear.1 mph94%29.86 "HgN/A
3:30 AM61 °FClear.1 mph94%29.86 "HgN/A
3:00 AM61 °FClear.No wind88%29.86 "HgN/A
2:30 AM61 °FClear.No wind94%29.86 "HgN/A
2:00 AM63 °FClear.3 mph94%29.86 "HgN/A
1:30 AM63 °FClear.1 mph94%29.86 "HgN/A
1:00 AM66 °FClear.3 mph78%29.86 "HgN/A
12:30 AM64 °FClear.3 mph88%29.86 "HgN/A
12:00 AM66 °FPassing clouds.3 mph88%29.86 "HgN/A
Weather by CustomWeather, © 2014

See weather overviewHow to use our weather pages